Time,TemperatureF,DewpointF,PressureIn,WindDirection,WindDirectionDegrees,WindSpeedMPH,WindSpeedGustMPH,Humidity,HourlyPrecipIn,Conditions,Clouds,dailyrainin,SoftwareType,DateUTC
2013-04-26 00:03:00,42.0,38.0,30.30,NNE,29,0.0,1.0,87,0.03,,,0.12,,2013-04-26 04:03:00,
2013-04-26 00:12:00,42.0,38.0,30.30,NNE,29,0.0,1.0,87,0.03,,,0.12,,2013-04-26 04:12:00,
2013-04-26 00:23:00,42.0,38.0,30.30,NNE,29,0.0,0.0,87,0.02,,,0.13,,2013-04-26 04:23:00,
2013-04-26 00:32:00,42.0,38.0,30.31,North,5,1.0,4.0,87,0.01,,,0.13,,2013-04-26 04:32:00,
2013-04-26 00:43:00,42.0,38.0,30.31,North,5,1.0,4.0,87,0.01,,,0.13,,2013-04-26 04:43:00,
2013-04-26 00:53:00,41.0,37.0,30.30,NNW,331,2.0,9.0,87,0.02,,,0.14,,2013-04-26 04:53:00,
2013-04-26 01:02:00,41.0,37.0,30.31,NNW,331,2.0,4.0,87,0.02,,,0.14,,2013-04-26 05:02:00,
2013-04-26 01:13:00,41.0,37.0,30.31,NNW,331,2.0,4.0,87,0.02,,,0.14,,2013-04-26 05:13:00,
2013-04-26 01:22:00,41.0,37.0,30.31,NNW,332,0.0,3.0,87,0.01,,,0.14,,2013-04-26 05:22:00,
2013-04-26 01:32:00,41.0,37.0,30.31,NNW,332,0.0,3.0,87,0.01,,,0.14,,2013-04-26 05:32:00,
2013-04-26 01:42:00,41.0,37.0,30.31,NNW,332,0.0,3.0,87,0.01,,,0.14,,2013-04-26 05:42:00,
2013-04-26 01:52:00,40.0,37.0,30.32,NNW,334,2.0,4.0,88,0.00,,,0.14,,2013-04-26 05:52:00,
2013-04-26 02:02:00,40.0,37.0,30.32,NNW,334,2.0,3.0,88,0.00,,,0.14,,2013-04-26 06:02:00,
2013-04-26 02:11:00,40.0,37.0,30.32,NNW,334,2.0,3.0,88,0.00,,,0.14,,2013-04-26 06:11:00,
2013-04-26 02:22:00,40.0,37.0,30.32,NNW,333,3.0,5.0,88,0.00,,,0.14,,2013-04-26 06:22:00,
2013-04-26 02:32:00,40.0,37.0,30.33,North,351,2.0,5.0,88,0.00,,,0.14,,2013-04-26 06:32:00,
2013-04-26 02:42:00,40.0,37.0,30.33,North,351,2.0,5.0,88,0.00,,,0.14,,2013-04-26 06:42:00,
2013-04-26 02:52:00,39.0,36.0,30.33,NNW,327,2.0,5.0,88,0.00,,,0.14,,2013-04-26 06:52:00,
2013-04-26 03:01:00,39.0,36.0,30.33,NNW,327,1.0,3.0,88,0.00,,,0.14,,2013-04-26 07:01:00,
2013-04-26 03:11:00,39.0,36.0,30.33,NNW,327,1.0,3.0,88,0.00,,,0.14,,2013-04-26 07:11:00,
2013-04-26 03:22:00,39.0,36.0,30.33,NNW,327,2.0,3.0,88,0.00,,,0.14,,2013-04-26 07:22:00,
2013-04-26 03:32:00,39.0,36.0,30.34,NNW,335,2.0,5.0,88,0.00,,,0.14,,2013-04-26 07:32:00,
2013-04-26 03:42:00,39.0,36.0,30.34,NNW,335,2.0,5.0,88,0.00,,,0.14,,2013-04-26 07:42:00,
2013-04-26 03:52:00,39.0,36.0,30.35,NNW,334,2.0,4.0,88,0.00,,,0.14,,2013-04-26 07:52:00,
2013-04-26 04:02:00,39.0,36.0,30.35,NNW,334,0.0,3.0,88,0.00,,,0.14,,2013-04-26 08:02:00,
2013-04-26 04:11:00,39.0,36.0,30.35,NNW,334,0.0,3.0,88,0.00,,,0.14,,2013-04-26 08:11:00,
2013-04-26 04:22:00,38.0,35.0,30.35,NNW,334,1.0,3.0,89,0.00,,,0.14,,2013-04-26 08:22:00,
2013-04-26 04:32:00,38.0,35.0,30.36,NNW,335,1.0,3.0,88,0.00,,,0.14,,2013-04-26 08:32:00,
2013-04-26 04:42:00,38.0,35.0,30.36,NNW,335,1.0,3.0,88,0.00,,,0.14,,2013-04-26 08:42:00,
2013-04-26 04:52:00,38.0,35.0,30.36,NNW,336,2.0,4.0,89,0.00,,,0.14,,2013-04-26 08:52:00,
2013-04-26 05:01:00,38.0,35.0,30.37,NNW,336,0.0,4.0,89,0.00,,,0.14,,2013-04-26 09:01:00,
2013-04-26 05:11:00,38.0,35.0,30.37,NNW,336,0.0,4.0,89,0.00,,,0.14,,2013-04-26 09:11:00,
2013-04-26 05:22:00,38.0,35.0,30.37,NNW,336,0.0,4.0,89,0.00,,,0.14,,2013-04-26 09:22:00,
2013-04-26 05:33:00,38.0,35.0,30.37,NNW,336,2.0,3.0,89,0.00,,,0.14,,2013-04-26 09:33:00,
2013-04-26 05:43:00,38.0,35.0,30.37,NNW,336,2.0,3.0,89,0.00,,,0.14,,2013-04-26 09:43:00,
2013-04-26 05:53:00,38.0,35.0,30.38,NNW,336,2.0,3.0,89,0.00,,,0.14,,2013-04-26 09:53:00,
2013-04-26 06:03:00,37.0,34.0,30.39,NNW,336,1.0,3.0,89,0.00,,,0.14,,2013-04-26 10:03:00,
2013-04-26 06:12:00,37.0,34.0,30.39,NNW,336,1.0,3.0,89,0.00,,,0.14,,2013-04-26 10:12:00,
2013-04-26 06:23:00,37.0,34.0,30.40,NNW,336,2.0,4.0,89,0.00,,,0.14,,2013-04-26 10:23:00,
2013-04-26 06:33:00,37.0,34.0,30.40,NNW,336,2.0,3.0,89,0.00,,,0.14,,2013-04-26 10:33:00,
2013-04-26 06:42:00,37.0,34.0,30.40,NNW,336,2.0,3.0,89,0.00,,,0.14,,2013-04-26 10:42:00,
2013-04-26 06:52:00,37.0,34.0,30.40,NNW,336,2.0,4.0,89,0.00,,,0.14,,2013-04-26 10:52:00,
2013-04-26 07:02:00,37.0,34.0,30.41,NNW,335,0.0,4.0,89,0.00,,,0.14,,2013-04-26 11:02:00,
2013-04-26 07:11:00,37.0,34.0,30.41,NNW,335,0.0,4.0,89,0.00,,,0.14,,2013-04-26 11:11:00,
2013-04-26 07:22:00,37.0,34.0,30.42,NNW,329,2.0,5.0,89,0.00,,,0.14,,2013-04-26 11:22:00,
2013-04-26 07:32:00,37.0,34.0,30.42,NNW,329,1.0,4.0,89,0.00,,,0.14,,2013-04-26 11:32:00,
2013-04-26 07:42:00,37.0,34.0,30.42,NNW,329,1.0,4.0,89,0.00,,,0.14,,2013-04-26 11:42:00,
2013-04-26 07:52:00,38.0,35.0,30.42,NNW,329,2.0,5.0,89,0.00,,,0.14,,2013-04-26 11:52:00,
2013-04-26 08:01:00,39.0,36.0,30.42,NNW,329,2.0,6.0,89,0.00,,,0.14,,2013-04-26 12:01:00,
2013-04-26 08:11:00,39.0,36.0,30.42,NNW,329,2.0,6.0,89,0.00,,,0.14,,2013-04-26 12:11:00,
2013-04-26 08:21:00,39.0,36.0,30.43,NNE,20,3.0,6.0,89,0.00,,,0.14,,2013-04-26 12:21:00,
2013-04-26 08:32:00,40.0,37.0,30.43,NNW,333,0.0,5.0,89,0.00,,,0.14,,2013-04-26 12:32:00,
2013-04-26 08:42:00,40.0,37.0,30.43,NNW,333,0.0,5.0,89,0.00,,,0.14,,2013-04-26 12:42:00,
2013-04-26 08:52:00,41.0,37.0,30.43,NNW,333,2.0,10.0,87,0.01,,,0.15,,2013-04-26 12:52:00,
2013-04-26 09:01:00,42.0,38.0,30.44,NNW,329,3.0,9.0,85,0.01,,,0.15,,2013-04-26 13:01:00,
2013-04-26 09:11:00,42.0,38.0,30.44,NNW,329,3.0,9.0,85,0.01,,,0.15,,2013-04-26 13:11:00,
2013-04-26 09:22:00,43.0,38.0,30.45,NNW,328,1.0,7.0,81,0.01,,,0.15,,2013-04-26 13:22:00,
2013-04-26 09:32:00,43.0,37.0,30.45,NNW,336,7.0,11.0,78,0.01,,,0.15,,2013-04-26 13:32:00,
2013-04-26 09:42:00,43.0,37.0,30.45,NNW,336,7.0,11.0,78,0.01,,,0.15,,2013-04-26 13:42:00,
2013-04-26 09:52:00,44.0,33.0,30.45,NE,52,3.0,7.0,66,0.00,,,0.15,,2013-04-26 13:52:00,
2013-04-26 10:01:00,45.0,32.0,30.45,NE,48,3.0,10.0,60,0.00,,,0.15,,2013-04-26 14:01:00,
2013-04-26 10:11:00,45.0,32.0,30.45,NE,48,3.0,10.0,60,0.00,,,0.15,,2013-04-26 14:11:00,
2013-04-26 10:21:00,46.0,31.0,30.45,NNE,31,3.0,12.0,56,0.00,,,0.15,,2013-04-26 14:21:00,
2013-04-26 10:32:00,46.0,31.0,30.45,ENE,57,5.0,12.0,56,0.00,,,0.15,,2013-04-26 14:32:00,
2013-04-26 10:42:00,46.0,31.0,30.45,ENE,57,5.0,12.0,56,0.00,,,0.15,,2013-04-26 14:42:00,
2013-04-26 10:52:00,47.0,32.0,30.46,NNE,30,0.0,10.0,56,0.00,,,0.15,,2013-04-26 14:52:00,
2013-04-26 11:01:00,47.0,32.0,30.45,NE,34,5.0,11.0,55,0.00,,,0.15,,2013-04-26 15:01:00,
2013-04-26 11:12:00,47.0,32.0,30.45,NE,34,5.0,11.0,55,0.00,,,0.15,,2013-04-26 15:12:00,
2013-04-26 11:22:00,47.0,31.0,30.46,NNW,331,4.0,11.0,53,0.00,,,0.15,,2013-04-26 15:22:00,
2013-04-26 11:33:00,47.0,31.0,30.46,NNE,25,3.0,9.0,54,0.00,,,0.15,,2013-04-26 15:33:00,
2013-04-26 11:43:00,47.0,31.0,30.46,NNE,25,3.0,9.0,54,0.00,,,0.15,,2013-04-26 15:43:00,
2013-04-26 11:53:00,48.0,32.0,30.46,WNW,299,2.0,9.0,54,0.00,,,0.15,,2013-04-26 15:53:00,
2013-04-26 12:03:00,48.0,33.0,30.46,NE,44,2.0,10.0,55,0.00,,,0.15,,2013-04-26 16:03:00,
2013-04-26 12:13:00,48.0,33.0,30.46,NE,44,2.0,10.0,55,0.00,,,0.15,,2013-04-26 16:13:00,
2013-04-26 12:23:00,48.0,33.0,30.46,NE,42,2.0,7.0,56,0.00,,,0.15,,2013-04-26 16:23:00,
2013-04-26 12:33:00,48.0,33.0,30.47,NE,34,1.0,9.0,55,0.00,,,0.15,,2013-04-26 16:33:00,
2013-04-26 12:42:00,48.0,33.0,30.47,NE,34,1.0,9.0,55,0.00,,,0.15,,2013-04-26 16:42:00,
2013-04-26 12:53:00,50.0,34.0,30.46,SE,137,1.0,4.0,55,0.00,,,0.15,,2013-04-26 16:53:00,
2013-04-26 13:02:00,50.0,35.0,30.46,NNE,29,0.0,5.0,57,0.00,,,0.15,,2013-04-26 17:02:00,
2013-04-26 13:12:00,50.0,35.0,30.46,NNE,29,0.0,5.0,57,0.00,,,0.15,,2013-04-26 17:12:00,
2013-04-26 13:22:00,50.0,34.0,30.46,NE,51,1.0,6.0,54,0.00,,,0.15,,2013-04-26 17:22:00,
2013-04-26 13:32:00,50.0,35.0,30.46,NE,56,1.0,5.0,56,0.00,,,0.15,,2013-04-26 17:32:00,
2013-04-26 13:42:00,50.0,35.0,30.46,NE,56,1.0,5.0,56,0.00,,,0.15,,2013-04-26 17:42:00,
2013-04-26 13:52:00,51.0,35.0,30.46,NE,51,1.0,7.0,55,0.00,,,0.15,,2013-04-26 17:52:00,
2013-04-26 14:02:00,51.0,35.0,30.46,ENE,63,2.0,12.0,54,0.00,,,0.15,,2013-04-26 18:02:00,
2013-04-26 14:12:00,51.0,35.0,30.46,ENE,63,2.0,12.0,54,0.00,,,0.15,,2013-04-26 18:12:00,
2013-04-26 14:22:00,50.0,36.0,30.46,East,80,0.0,12.0,58,0.00,,,0.15,,2013-04-26 18:22:00,
2013-04-26 14:33:00,50.0,34.0,30.46,ENE,61,2.0,8.0,55,0.00,,,0.15,,2013-04-26 18:33:00,
2013-04-26 14:42:00,50.0,34.0,30.46,ENE,61,2.0,8.0,55,0.00,,,0.15,,2013-04-26 18:42:00,
2013-04-26 14:52:00,50.0,35.0,30.46,East,80,2.0,9.0,56,0.00,,,0.15,,2013-04-26 18:52:00,
2013-04-26 15:01:00,50.0,36.0,30.46,ENE,68,1.0,4.0,59,0.00,,,0.15,,2013-04-26 19:01:00,
2013-04-26 15:12:00,50.0,36.0,30.46,ENE,68,1.0,4.0,59,0.00,,,0.15,,2013-04-26 19:12:00,
2013-04-26 15:22:00,50.0,35.0,30.46,North,5,3.0,8.0,57,0.00,,,0.15,,2013-04-26 19:22:00,
2013-04-26 15:32:00,49.0,33.0,30.45,NE,48,4.0,10.0,53,0.00,,,0.15,,2013-04-26 19:32:00,
2013-04-26 15:42:00,49.0,33.0,30.45,NE,48,4.0,10.0,53,0.00,,,0.15,,2013-04-26 19:42:00,
2013-04-26 15:52:00,50.0,33.0,30.46,NE,38,4.0,7.0,52,0.00,,,0.15,,2013-04-26 19:52:00,
2013-04-26 16:02:00,50.0,32.0,30.46,NE,55,3.0,11.0,50,0.00,,,0.15,,2013-04-26 20:02:00,
2013-04-26 16:11:00,50.0,32.0,30.46,NE,55,3.0,11.0,50,0.00,,,0.15,,2013-04-26 20:11:00,
2013-04-26 16:22:00,49.0,31.0,30.46,NE,53,4.0,11.0,49,0.00,,,0.15,,2013-04-26 20:22:00,
2013-04-26 16:32:00,50.0,32.0,30.46,NE,50,4.0,11.0,49,0.00,,,0.15,,2013-04-26 20:32:00,
2013-04-26 16:42:00,50.0,32.0,30.46,NE,50,4.0,11.0,49,0.00,,,0.15,,2013-04-26 20:42:00,
2013-04-26 16:52:00,49.0,31.0,30.45,NE,53,4.0,11.0,50,0.00,,,0.15,,2013-04-26 20:52:00,
2013-04-26 17:02:00,49.0,31.0,30.45,ENE,65,2.0,10.0,49,0.00,,,0.15,,2013-04-26 21:02:00,
2013-04-26 17:11:00,49.0,31.0,30.45,ENE,65,2.0,10.0,49,0.00,,,0.15,,2013-04-26 21:11:00,
2013-04-26 17:22:00,50.0,31.0,30.45,NE,40,4.0,7.0,48,0.00,,,0.15,,2013-04-26 21:22:00,
2013-04-26 17:33:00,49.0,31.0,30.44,ENE,71,3.0,11.0,49,0.00,,,0.15,,2013-04-26 21:33:00,
2013-04-26 17:42:00,49.0,31.0,30.44,ENE,71,3.0,11.0,49,0.00,,,0.15,,2013-04-26 21:42:00,
2013-04-26 17:53:00,50.0,33.0,30.44,NE,49,2.0,5.0,52,0.00,,,0.15,,2013-04-26 21:53:00,
2013-04-26 18:03:00,51.0,33.0,30.44,NE,38,1.0,4.0,49,0.00,,,0.15,,2013-04-26 22:03:00,
2013-04-26 18:12:00,51.0,33.0,30.44,NE,38,1.0,4.0,49,0.00,,,0.15,,2013-04-26 22:12:00,
2013-04-26 18:23:00,50.0,32.0,30.44,NE,53,0.0,7.0,49,0.00,,,0.15,,2013-04-26 22:23:00,
2013-04-26 18:33:00,50.0,31.0,30.44,NE,42,0.0,5.0,48,0.00,,,0.15,,2013-04-26 22:33:00,
2013-04-26 18:42:00,50.0,31.0,30.44,NE,42,0.0,5.0,48,0.00,,,0.15,,2013-04-26 22:42:00,
2013-04-26 18:52:00,49.0,29.0,30.43,NE,49,1.0,3.0,45,0.00,,,0.15,,2013-04-26 22:52:00,
2013-04-26 19:02:00,49.0,29.0,30.44,NE,49,0.0,5.0,46,0.00,,,0.15,,2013-04-26 23:02:00,
2013-04-26 19:12:00,49.0,29.0,30.44,NE,49,0.0,5.0,46,0.00,,,0.15,,2013-04-26 23:12:00,
2013-04-26 19:21:00,48.0,31.0,30.43,NE,49,0.0,1.0,51,0.00,,,0.15,,2013-04-26 23:21:00,
2013-04-26 19:32:00,48.0,31.0,30.43,NE,49,0.0,1.0,52,0.00,,,0.15,,2013-04-26 23:32:00,
2013-04-26 19:42:00,48.0,31.0,30.43,NE,49,0.0,1.0,52,0.00,,,0.15,,2013-04-26 23:42:00,
2013-04-26 19:52:00,48.0,30.0,30.43,NE,50,0.0,1.0,50,0.00,,,0.15,,2013-04-26 23:52:00,
2013-04-26 20:01:00,47.0,30.0,30.43,NE,50,0.0,2.0,52,0.00,,,0.15,,2013-04-27 00:01:00,
2013-04-26 20:11:00,47.0,30.0,30.43,NE,50,0.0,2.0,52,0.00,,,0.15,,2013-04-27 00:11:00,
2013-04-26 20:21:00,46.0,30.0,30.43,NE,50,0.0,0.0,53,0.00,,,0.15,,2013-04-27 00:21:00,
2013-04-26 20:32:00,46.0,30.0,30.44,NE,50,0.0,0.0,54,0.00,,,0.15,,2013-04-27 00:32:00,
2013-04-26 20:42:00,46.0,30.0,30.44,NE,50,0.0,0.0,54,0.00,,,0.15,,2013-04-27 00:42:00,
2013-04-26 20:52:00,45.0,29.0,30.44,NE,50,0.0,0.0,54,0.00,,,0.15,,2013-04-27 00:52:00,
2013-04-26 21:01:00,45.0,31.0,30.44,NE,50,0.0,0.0,57,0.00,,,0.15,,2013-04-27 01:01:00,
2013-04-26 21:12:00,45.0,31.0,30.44,NE,50,0.0,0.0,57,0.00,,,0.15,,2013-04-27 01:12:00,
2013-04-26 21:21:00,43.0,30.0,30.45,NE,50,0.0,1.0,61,0.00,,,0.15,,2013-04-27 01:21:00,
2013-04-26 21:32:00,43.0,31.0,30.44,NE,50,0.0,0.0,63,0.00,,,0.15,,2013-04-27 01:32:00,
2013-04-26 21:42:00,43.0,31.0,30.44,NE,50,0.0,0.0,63,0.00,,,0.15,,2013-04-27 01:42:00,
2013-04-26 21:52:00,42.0,31.0,30.44,NE,50,0.0,0.0,65,0.00,,,0.14,,2013-04-27 01:52:00,
2013-04-26 22:02:00,42.0,31.0,30.44,NE,50,0.0,2.0,65,0.00,,,0.14,,2013-04-27 02:02:00,
2013-04-26 22:11:00,42.0,31.0,30.44,NE,50,0.0,2.0,65,0.00,,,0.14,,2013-04-27 02:11:00,
2013-04-26 22:22:00,42.0,31.0,30.45,NE,50,1.0,3.0,66,0.00,,,0.14,,2013-04-27 02:22:00,
2013-04-26 22:32:00,41.0,31.0,30.45,NE,50,0.0,2.0,68,0.00,,,0.14,,2013-04-27 02:32:00,
2013-04-26 22:42:00,41.0,31.0,30.45,NE,50,0.0,2.0,68,0.00,,,0.14,,2013-04-27 02:42:00,
2013-04-26 22:52:00,41.0,32.0,30.44,NE,49,1.0,3.0,71,0.00,,,0.07,,2013-04-27 02:52:00,
2013-04-26 23:02:00,41.0,32.0,30.44,SSW,199,2.0,4.0,71,0.00,,,0.07,,2013-04-27 03:02:00,
2013-04-26 23:11:00,41.0,32.0,30.44,SSW,199,2.0,4.0,71,0.00,,,0.07,,2013-04-27 03:11:00,
2013-04-26 23:22:00,40.0,32.0,30.44,SSW,199,0.0,3.0,73,0.00,,,0.07,,2013-04-27 03:22:00,
2013-04-26 23:33:00,40.0,32.0,30.44,SSW,200,0.0,4.0,73,0.00,,,0.07,,2013-04-27 03:33:00,
2013-04-26 23:43:00,40.0,32.0,30.44,SSW,200,0.0,4.0,73,0.00,,,0.07,,2013-04-27 03:43:00,
2013-04-26 23:53:00,40.0,31.0,30.43,SSW,202,1.0,4.0,71,0.00,,,0.03,,2013-04-27 03:53:00,